Location: Newark
(34.3481°N, 134.0494°E)
Time: 01:59:24
(UTC+00:00)

Vanguard 3 - Pass Details

Date: 18 January 2020
Orbit: 508 x 3263 km, 33.3° (Epoch: 21 February)

Event Time Altitude Azimuth Distance (km) Brightness Sun altitude
Rises 14:12:06 0° 276° (W) 6,304 11.9 -70.6°
Reaches altitude 10° 14:16:55 10° 276° (W) 4,882 11.2 -71.3°
Enters shadow 14:17:39 12° 276° (W) 4,658 11.1 -71.4°
